Date,TemperatureHighF,TemperatureAvgF,TemperatureLowF,DewpointHighF,DewpointAvgF,DewpointLowF,HumidityHigh,HumidityAvg,HumidityLow,PressureMaxIn,PressureMinIn,WindSpeedMaxMPH,WindSpeedAvgMPH,GustSpeedMaxMPH,PrecipitationSumIn
2013-1-1,44.3,33.1,25.8,34.5,29.4,23.8,95,87,62,30.47,30.34,9,2,9,0.01
2013-1-2,48.5,31.0,21.6,33.3,26.0,19.6,94,83,47,30.34,30.18,6,1,6,0.00
2013-1-3,44.8,30.5,21.8,33.2,26.5,19.8,94,86,61,30.35,30.16,7,2,7,0.00
2013-1-4,46.7,31.5,23.2,35.6,27.6,21.5,96,86,56,30.38,30.22,5,1,5,0.00
2013-1-5,41.2,34.4,28.4,36.1,32.0,26.6,95,91,79,30.24,30.16,9,1,9,0.07
2013-1-6,43.6,37.5,33.7,39.3,35.4,31.6,97,92,83,30.27,30.16,4,1,4,0.01
2013-1-7,43.9,40.2,36.0,40.9,38.4,34.3,97,94,88,30.31,30.23,4,1,4,0.05
2013-1-8,46.0,42.3,40.2,42.4,40.3,38.9,96,93,85,30.34,30.07,9,2,9,0.00
2013-1-9,45.4,39.8,32.4,42.3,36.2,29.2,97,87,69,30.07,29.88,16,4,16,0.05
2013-1-10,40.1,34.6,30.7,33.8,30.8,27.9,95,86,75,30.18,30.00,16,3,16,0.03
2013-1-11,41.5,33.8,24.8,34.7,28.2,22.3,91,80,66,30.30,30.14,16,4,16,0.04
2013-1-12,34.7,27.4,22.9,26.1,23.2,19.3,93,85,67,30.37,30.28,6,1,6,0.00
2013-1-13,34.1,25.9,19.4,25.4,20.6,16.9,90,80,66,30.48,30.36,12,2,12,0.00
2013-1-14,39.2,24.8,16.9,24.9,19.3,14.5,92,81,45,30.60,30.47,6,1,6,0.00
2013-1-15,43.5,27.7,18.6,31.3,23.2,16.2,93,84,57,30.67,30.55,4,1,4,0.00
2013-1-16,34.1,26.4,20.5,32.6,25.0,18.5,98,95,91,30.67,30.52,5,1,5,0.00
2013-1-17,38.8,26.9,21.9,33.6,24.9,20.2,99,92,80,30.52,30.33,4,1,4,0.00
2013-1-18,44.5,27.2,19.4,36.1,24.3,17.5,98,89,68,30.41,30.27,4,1,4,0.01
2013-1-19,47.0,28.7,18.0,34.0,24.0,15.7,95,84,54,30.42,30.29,5,1,5,0.00
2013-1-20,48.5,29.0,17.8,30.6,23.3,15.4,93,81,47,30.41,30.26,6,1,6,0.01
2013-1-21,50.1,30.1,17.7,31.2,23.7,15.3,93,79,38,30.32,30.19,5,1,5,0.00
2013-1-22,45.7,32.1,20.3,31.7,26.6,18.1,93,81,54,30.21,29.96,4,1,4,0.00
2013-1-23,55.7,45.0,31.0,48.8,38.8,27.6,97,81,42,30.10,29.81,24,5,24,0.10
2013-1-24,52.2,44.8,41.3,48.0,43.2,40.0,100,94,79,30.20,30.10,7,1,7,0.00
2013-1-25,49.1,45.4,42.1,47.8,44.1,41.0,98,95,91,30.18,29.97,7,1,7,0.24
2013-1-26,47.6,39.4,32.1,44.9,35.6,30.3,96,87,65,30.13,29.97,17,2,17,0.15
2013-1-27,44.9,37.7,31.9,36.2,33.1,30.1,96,84,61,30.23,30.11,12,2,12,0.05
2013-1-28,45.1,39.7,34.3,38.8,36.3,32.2,96,88,74,30.33,30.14,13,2,13,0.01
2013-1-29,47.1,41.7,36.8,40.5,37.6,34.6,96,86,73,30.52,30.32,10,2,10,0.01
2013-1-30,42.9,39.6,36.9,37.9,36.4,35.1,93,88,79,30.60,30.46,5,1,5,0.00
2013-1-31,41.9,39.5,38.0,36.8,35.9,35.0,90,87,80,30.46,30.36,6,2,6,0.00
2013-2-1,46.4,37.1,28.8,37.6,33.3,27.3,95,87,69,30.37,30.25,6,2,6,0.00
2013-2-2,43.8,34.0,27.9,38.6,32.0,25.9,98,93,81,30.39,30.29,5,1,5,0.00
2013-2-3,40.8,34.0,30.0,36.9,32.4,28.0,97,94,85,30.40,30.25,5,1,5,0.01
2013-2-4,45.2,36.1,32.1,39.0,33.9,31.1,98,92,76,30.27,30.02,5,1,5,0.00
2013-2-5,47.3,38.0,29.7,42.6,35.9,28.2,98,92,81,30.16,30.01,5,2,5,0.05
2013-2-6,53.8,39.9,30.6,40.8,34.5,28.8,97,82,56,30.19,29.94,10,2,10,0.00
2013-2-7,47.3,39.5,32.8,38.1,35.0,31.3,96,85,62,30.05,29.94,12,3,12,0.12
2013-2-8,48.2,36.8,27.5,36.9,31.3,24.8,95,82,48,30.25,30.05,14,3,14,0.29
2013-2-9,49.2,37.2,29.5,34.1,29.9,26.7,90,76,49,30.29,30.20,7,1,7,0.00
2013-2-10,52.8,36.5,26.6,37.3,30.3,24.8,95,80,45,30.33,30.20,6,2,6,0.00
2013-2-11,42.8,32.9,25.1,35.3,29.8,23.4,94,88,72,30.45,30.27,9,1,9,0.00
2013-2-12,53.9,39.5,29.4,40.9,34.3,27.4,94,83,58,30.54,30.45,10,2,10,0.00
2013-2-13,58.7,42.0,30.6,42.1,36.0,28.6,96,81,51,30.52,30.39,6,2,6,0.00
2013-2-14,59.2,44.1,34.3,43.4,37.8,32.2,95,80,51,30.54,30.38,10,2,10,0.00
2013-2-15,67.1,43.6,28.2,43.5,35.5,26.7,97,77,37,30.40,30.21,7,2,7,0.00
2013-2-16,63.9,42.2,29.0,41.0,33.7,27.2,96,75,40,30.29,30.13,20,3,20,0.00
2013-2-17,53.8,38.5,27.3,35.3,29.2,21.1,94,72,31,30.28,30.05,9,2,9,0.00
2013-2-18,46.0,35.6,26.4,35.2,29.8,23.6,92,80,63,30.06,29.79,8,2,8,0.00
2013-2-19,46.0,37.9,31.5,35.6,32.1,28.1,93,80,58,29.97,29.63,12,3,12,0.02
2013-2-20,50.4,41.0,34.4,36.1,32.8,29.7,91,74,50,30.12,29.97,12,2,12,0.08
2013-2-21,47.4,39.6,33.7,37.7,34.0,31.8,96,81,59,30.27,30.12,12,2,12,0.18
2013-2-22,51.0,39.9,31.5,41.4,35.5,28.9,93,85,56,30.30,30.06,16,2,16,0.11
2013-2-23,48.8,37.3,29.0,35.2,32.1,26.2,91,82,51,30.45,30.15,18,3,18,0.02
2013-2-24,50.8,35.3,23.9,36.2,29.2,21.7,94,80,51,30.49,30.23,8,2,8,0.00
2013-2-25,53.2,41.2,30.9,38.7,33.0,25.8,95,75,39,30.41,30.19,20,4,20,0.00
2013-2-26,52.5,36.8,25.7,35.4,29.3,23.7,93,76,42,30.42,30.25,12,2,12,0.00
2013-2-27,55.6,41.0,26.7,42.6,33.5,24.2,94,77,43,30.38,30.29,9,2,9,0.01
2013-2-28,53.5,47.6,43.1,48.1,44.9,41.0,97,91,77,30.51,30.29,6,1,6,0.11
2013-3-1,64.3,51.4,41.1,50.8,46.2,38.6,99,84,56,30.51,30.29,12,2,12,0.00
2013-3-2,54.8,46.3,37.6,46.7,42.4,36.2,97,87,72,30.30,30.15,10,1,10,0.04
2013-3-3,58.9,47.0,32.5,44.2,38.9,30.0,95,76,35,30.17,30.06,10,2,10,0.01
2013-3-4,62.3,40.9,27.2,42.2,34.2,25.7,96,79,44,30.14,29.92,9,2,9,0.00
2013-3-5,52.5,43.1,34.0,42.0,36.0,31.7,93,77,54,29.92,29.55,18,4,18,0.00
2013-3-6,52.6,43.4,34.6,39.1,34.7,28.6,92,73,44,29.97,29.51,26,6,26,0.03
2013-3-7,57.5,38.9,26.9,37.4,30.7,24.7,96,75,37,30.04,29.92,12,2,12,0.00
2013-3-8,58.3,39.1,24.4,38.0,28.6,18.4,94,71,24,30.18,29.95,15,3,15,0.00
2013-3-9,60.9,40.0,24.8,38.0,28.1,22.0,93,68,24,30.49,30.18,9,2,9,0.00
2013-3-10,63.9,43.3,26.9,38.6,31.1,24.1,90,66,27,30.55,30.36,7,2,7,0.00
2013-3-11,67.3,47.1,31.0,45.6,36.2,28.3,92,69,37,30.40,30.19,9,2,9,0.00
2013-3-12,67.6,48.7,33.1,47.9,39.9,31.1,96,75,37,30.24,30.12,8,2,8,0.00
2013-3-13,67.3,49.2,37.5,48.4,41.2,35.5,95,76,45,30.24,30.09,7,2,7,0.00
2013-3-14,66.6,50.9,38.9,48.1,41.9,36.8,95,74,40,30.22,30.08,9,2,9,0.00
2013-3-15,69.8,50.5,36.8,46.9,39.2,33.9,92,69,33,30.24,30.11,13,2,13,0.00
2013-3-16,59.2,48.8,39.2,46.3,40.5,36.6,93,74,49,30.17,30.10,16,4,16,0.00
2013-3-17,56.2,43.6,33.8,38.1,33.6,29.1,92,70,41,30.29,30.15,15,3,15,0.00
2013-3-18,60.9,42.6,26.3,38.9,31.3,23.8,92,68,31,30.27,30.06,9,2,9,0.00
2013-3-19,58.6,49.1,39.3,48.3,41.3,35.5,91,75,50,30.07,29.77,13,2,13,0.01
2013-3-20,60.2,50.5,38.9,48.0,40.4,31.9,89,69,47,30.19,29.72,32,10,32,0.02
2013-3-21,52.5,42.3,33.4,34.9,30.9,23.9,89,67,37,30.33,30.19,13,3,13,0.00
2013-3-22,51.6,38.4,27.8,31.6,26.6,20.5,87,65,34,30.35,30.29,16,3,16,0.00
2013-3-23,58.4,39.3,23.6,31.6,25.3,20.0,90,62,25,30.36,30.17,15,2,15,0.00
2013-3-24,63.9,43.9,29.1,38.3,31.5,25.3,87,65,35,30.21,30.00,10,2,10,0.00
2013-3-25,65.0,48.0,32.9,44.0,38.4,30.8,93,72,38,30.00,29.83,12,2,12,0.05
2013-3-26,61.0,50.1,43.8,47.1,43.2,40.8,95,79,51,29.97,29.89,10,2,10,0.05
2013-3-27,64.8,51.3,40.1,54.7,45.1,37.8,94,80,56,29.95,29.84,13,3,13,0.05
2013-3-28,63.4,53.7,47.6,52.9,47.8,45.2,95,81,58,30.10,29.93,13,2,13,0.03
2013-3-29,74.7,56.4,45.4,50.9,45.9,40.5,97,73,30,30.17,30.02,12,2,12,0.00
2013-3-30,77.4,56.4,38.0,52.7,45.3,36.2,96,70,32,30.11,29.89,18,2,18,0.01
2013-3-31,59.3,55.0,51.9,52.9,49.7,46.4,93,83,71,30.02,29.92,22,3,22,0.11
2013-4-1,60.4,52.4,45.8,50.4,47.8,43.3,97,85,61,30.17,29.99,9,2,9,0.58
2013-4-2,70.3,56.2,46.0,51.9,47.7,43.3,93,75,44,30.19,30.07,14,3,14,0.00
2013-4-3,68.3,53.8,39.1,54.4,47.0,37.6,97,80,56,30.14,29.84,7,2,7,0.00
2013-4-4,67.4,56.9,48.6,51.6,47.0,41.6,94,71,49,29.94,29.73,30,8,30,0.06
2013-4-5,60.4,51.6,44.9,50.3,46.6,41.9,96,84,52,30.02,29.94,15,3,15,0.01
2013-4-6,59.9,51.2,47.1,50.7,46.7,41.1,97,86,57,30.04,29.88,25,4,25,0.10
2013-4-7,57.5,47.2,39.3,45.7,40.9,35.1,96,80,50,29.95,29.83,26,8,26,0.18
2013-4-8,57.2,44.6,33.8,39.9,35.8,31.2,93,73,46,30.26,29.95,17,4,17,0.01
2013-4-9,66.8,48.9,35.3,43.4,36.3,26.9,94,68,24,30.35,30.23,9,2,9,0.00
2013-4-10,64.0,48.9,36.8,53.2,43.5,35.0,95,83,54,30.32,30.20,16,3,16,0.00
2013-4-11,65.5,48.3,35.5,43.2,38.7,32.7,98,73,37,30.27,30.06,13,3,13,0.00
2013-4-12,72.8,51.2,33.1,50.4,37.4,30.5,95,65,27,30.10,29.84,20,4,20,0.00
2013-4-13,58.1,50.0,43.1,40.2,34.8,29.1,81,57,37,30.08,29.91,23,8,23,0.00
2013-4-14,54.7,43.9,31.9,38.1,32.8,28.5,89,66,40,30.08,29.87,13,4,13,0.01
2013-4-15,51.9,42.4,38.5,42.0,34.6,31.1,88,74,51,30.15,29.91,23,5,23,0.07
2013-4-16,56.5,44.3,35.0,39.7,34.6,30.7,89,71,42,30.36,30.14,20,5,20,0.00
2013-4-17,63.1,46.2,30.7,38.2,32.6,23.3,95,64,29,30.47,30.35,20,4,20,0.00
2013-4-18,68.8,50.4,32.9,46.3,38.2,30.2,91,66,37,30.45,30.28,10,2,10,0.00
2013-4-19,67.6,52.5,42.1,50.2,42.5,37.3,92,71,39,30.32,30.20,21,4,21,0.00
2013-4-20,71.1,52.1,35.0,46.6,38.2,29.1,95,65,24,30.33,30.14,16,3,16,0.00
2013-4-21,72.5,52.9,34.3,47.3,40.2,31.1,93,66,27,30.28,30.15,17,3,17,0.00
2013-4-22,74.9,56.2,37.9,50.6,40.9,26.5,95,63,19,30.23,30.08,16,4,16,0.00
2013-4-23,77.0,54.2,35.3,38.0,31.2,22.7,80,47,15,30.21,29.99,20,4,20,0.00
2013-4-24,80.7,58.1,32.8,37.7,31.4,25.0,82,44,15,30.08,29.87,27,5,27,0.00
2013-4-25,81.6,57.2,35.5,46.3,38.1,30.3,86,54,17,30.09,29.93,17,3,17,0.00
2013-4-26,85.9,61.5,40.5,50.4,42.5,37.3,90,56,19,30.22,30.09,14,3,14,0.00
2013-4-27,84.9,61.9,40.9,50.0,42.6,37.5,91,55,20,30.26,30.08,18,4,18,0.00
2013-4-28,76.5,58.5,41.1,47.9,40.7,35.5,86,56,28,30.24,30.08,14,4,14,0.00
2013-4-29,70.8,57.5,43.3,51.0,43.1,35.4,87,62,32,30.15,30.00,20,5,20,0.00
2013-4-30,65.8,48.7,33.4,36.0,32.2,24.6,91,58,24,30.31,30.07,20,4,20,0.00
2013-5-1,77.4,52.8,29.5,40.8,32.0,25.0,91,53,16,30.40,30.23,13,3,13,0.00
2013-5-2,84.9,61.4,38.6,43.7,34.4,27.8,72,42,16,30.32,30.09,12,3,12,0.00
2013-5-3,85.9,61.5,39.6,49.2,41.5,34.8,86,53,19,30.20,29.95,17,3,17,0.00
2013-5-4,84.1,63.2,40.1,47.3,38.8,31.3,90,49,16,30.02,29.68,28,6,28,0.00
2013-5-5,85.9,63.1,42.8,49.2,43.0,37.3,84,52,22,29.72,29.55,29,4,29,0.00
2013-5-6,76.0,59.1,45.7,57.0,50.0,42.5,93,74,42,29.89,29.72,30,4,30,0.14
2013-5-7,69.4,61.4,54.5,56.8,54.4,52.8,96,79,58,29.97,29.87,10,2,10,0.00
2013-5-8,77.4,62.7,51.0,57.7,53.3,49.1,96,74,41,30.07,29.94,27,4,27,0.01
2013-5-9,85.7,65.1,47.1,59.1,52.4,46.0,98,69,30,30.15,29.97,10,2,10,0.00
2013-5-10,90.7,69.9,50.8,62.6,54.6,48.8,95,63,31,30.16,30.01,14,3,14,0.00
2013-5-11,90.7,72.0,54.2,64.7,56.9,50.1,92,62,33,30.14,29.93,12,3,12,0.00
2013-5-12,87.4,68.0,49.9,58.8,49.8,40.6,88,57,29,30.08,29.95,20,4,20,0.00
2013-5-13,77.9,62.2,46.1,56.3,45.8,39.8,86,58,30,30.12,30.00,22,5,22,0.00
2013-5-14,77.0,59.7,43.2,51.5,44.4,38.1,93,62,27,30.13,29.96,16,4,16,0.00
2013-5-15,67.6,54.8,45.8,52.2,46.4,41.8,89,74,51,30.05,29.98,10,2,18,0.00
2013-5-16,68.1,56.5,50.2,53.3,47.6,42.2,93,74,49,29.99,29.88,18,5,18,0.03
2013-5-17,67.3,56.7,49.6,47.9,43.1,37.9,83,62,37,30.07,29.95,17,4,17,0.00
2013-5-18,66.8,56.0,47.9,55.1,46.5,42.5,87,71,54,30.28,30.07,13,4,13,0.04
2013-5-19,73.9,58.0,43.1,49.1,44.3,39.6,93,64,33,30.35,30.17,13,4,13,0.00
2013-5-20,82.8,61.9,40.8,54.2,43.1,31.9,94,57,22,30.24,29.87,15,4,15,0.00
2013-5-21,61.2,50.5,37.9,48.2,38.5,29.2,92,65,40,30.09,29.80,28,7,28,0.11
2013-5-22,56.5,46.0,35.2,43.3,37.8,31.5,94,75,47,30.11,30.00,16,4,16,0.10
2013-5-23,64.2,51.7,42.3,43.3,39.9,34.5,95,67,37,30.05,29.97,17,4,17,0.01
2013-5-24,63.4,52.8,43.8,44.5,40.0,35.4,82,63,42,30.07,30.00,16,5,16,0.00
2013-5-25,72.7,54.6,35.5,48.8,40.3,33.7,95,63,31,30.06,29.88,14,4,14,0.00
2013-5-26,70.9,58.4,51.0,52.6,46.9,40.7,95,69,39,30.03,29.94,16,4,16,0.05
2013-5-27,62.9,55.6,50.4,57.7,51.7,44.9,95,87,72,30.00,29.81,20,3,20,0.43
2013-5-28,74.4,60.7,50.7,54.7,49.8,41.5,97,71,36,29.93,29.75,14,4,14,0.08
2013-5-29,70.3,59.0,45.5,51.6,45.0,38.5,95,63,36,30.05,29.74,21,8,21,0.02
2013-5-30,71.3,56.4,43.5,47.8,41.7,35.7,86,61,30,30.19,30.04,17,4,17,0.00
2013-5-31,80.3,59.0,37.9,49.7,41.2,28.6,94,59,17,30.26,30.08,13,3,13,0.00
2013-6-1,84.0,63.7,42.3,52.8,44.8,34.2,92,56,21,30.16,29.91,17,4,17,0.00
2013-6-2,80.5,63.4,46.8,56.1,49.4,43.5,93,64,30,29.95,29.85,18,4,18,0.00
2013-6-3,85.9,64.4,44.2,55.6,48.2,36.3,93,62,21,29.99,29.83,14,3,14,0.00
2013-6-4,92.5,69.1,46.2,57.6,48.4,42.6,89,53,19,29.98,29.81,12,3,12,0.00
2013-6-5,93.4,71.2,48.0,56.6,49.3,43.1,85,50,22,30.01,29.82,12,3,12,0.00
2013-6-6,92.9,72.1,51.3,61.6,54.3,47.9,90,58,28,29.95,29.81,17,4,17,0.00
2013-6-7,90.3,72.7,55.0,61.7,55.3,48.9,93,59,30,30.02,29.89,15,4,15,0.00
2013-6-8,94.7,72.2,52.0,60.6,52.4,42.7,90,55,21,30.00,29.84,14,4,14,0.00
2013-6-9,91.6,70.3,50.7,57.6,47.2,33.9,83,48,23,29.92,29.73,16,4,16,0.00
2013-6-10,82.8,65.0,45.7,52.5,44.5,38.6,83,51,24,29.85,29.73,18,5,18,0.00
2013-6-11,68.6,57.8,46.5,48.9,44.3,39.5,81,62,39,30.09,29.85,20,5,20,0.00
2013-6-12,71.1,55.0,39.1,48.9,41.4,36.7,93,64,31,30.14,30.04,18,5,18,0.00
2013-6-13,72.7,58.7,43.3,47.2,42.5,38.5,86,58,32,30.24,30.14,20,5,20,0.00
2013-6-14,81.4,60.7,40.1,50.1,42.4,36.3,93,57,23,30.24,29.86,12,3,12,0.00
2013-6-15,85.5,65.7,43.9,52.6,46.5,40.2,87,55,25,29.94,29.81,18,4,18,0.00
2013-6-16,83.0,64.3,48.0,53.1,48.0,44.6,90,59,32,30.06,29.93,20,4,20,0.00
2013-6-17,80.7,63.8,45.8,55.4,48.4,43.3,92,61,35,30.05,29.89,22,6,22,0.00
2013-6-18,70.3,60.3,53.3,49.1,44.7,37.8,76,58,33,29.98,29.89,23,7,23,0.00
2013-6-19,67.3,56.4,49.2,55.7,46.2,41.6,92,69,48,30.11,29.97,20,5,20,0.06
2013-6-20,74.4,59.3,44.2,50.7,45.6,42.2,94,64,34,30.11,29.99,18,4,18,0.00
2013-6-21,79.2,61.2,42.1,51.2,43.1,32.1,93,57,23,30.12,29.98,16,4,16,0.00
2013-6-22,84.3,65.6,43.5,52.6,45.0,39.1,88,52,25,30.05,29.80,14,4,14,0.00
2013-6-23,80.5,66.9,58.9,57.4,51.8,47.0,76,59,41,29.80,29.59,17,4,17,0.00
2013-6-24,66.0,59.1,53.3,56.1,52.4,49.5,93,79,65,29.72,29.64,7,2,7,0.07
2013-6-25,74.4,60.9,54.1,58.7,54.0,47.5,98,80,40,29.88,29.68,33,4,33,0.02
2013-6-26,73.5,63.2,56.6,62.1,57.4,53.0,95,82,63,30.00,29.85,12,2,12,0.14
2013-6-27,88.2,70.9,54.1,65.5,59.2,52.8,97,70,39,30.08,29.99,12,3,12,0.00
2013-6-28,96.3,76.4,56.2,67.2,59.7,53.1,96,62,27,30.09,29.90,15,4,15,0.00
2013-6-29,94.3,76.9,58.9,67.6,58.8,52.8,91,58,27,30.03,29.83,13,3,13,0.00
2013-6-30,99.9,78.7,57.6,66.6,59.5,54.1,89,56,25,29.90,29.72,16,4,16,0.00
2013-7-1,99.0,80.4,61.5,71.3,62.7,56.7,89,59,27,29.90,29.81,13,4,13,0.00
2013-7-2,100.2,82.0,64.0,73.7,64.5,60.5,90,59,30,29.96,29.84,15,3,15,0.00
2013-7-3,98.7,80.6,66.0,72.1,61.5,49.1,85,56,30,29.96,29.83,18,4,18,0.00
2013-7-4,89.7,72.6,56.2,59.0,50.2,42.1,84,50,23,29.97,29.81,20,5,20,0.00
2013-7-5,85.5,68.1,51.6,58.4,50.8,46.6,90,58,28,29.92,29.75,15,4,15,0.00
2013-7-6,90.1,68.9,49.2,57.5,49.5,45.1,89,54,28,29.84,29.68,15,4,15,0.00
2013-7-7,91.0,71.7,52.5,60.8,52.4,47.1,87,54,29,29.84,29.71,15,4,15,0.00
2013-7-8,94.9,73.7,54.2,61.5,54.5,50.4,88,56,25,29.93,29.81,14,3,14,0.00
2013-7-9,98.0,77.4,55.7,62.6,54.5,48.5,84,50,20,29.98,29.82,16,4,16,0.00
2013-7-10,97.1,77.8,58.1,64.1,56.3,50.6,87,52,23,29.93,29.72,23,4,23,0.00
2013-7-11,90.1,73.2,58.3,63.2,53.5,45.1,86,54,25,29.87,29.76,26,5,26,0.00
2013-7-12,86.1,68.6,50.2,57.6,48.1,40.6,86,52,21,29.95,29.84,23,5,23,0.00
2013-7-13,89.5,69.2,49.9,57.9,49.7,45.2,86,54,27,30.01,29.85,16,4,16,0.00
2013-7-14,96.3,73.9,52.0,59.3,51.3,47.0,84,50,22,29.98,29.78,16,4,16,0.00
2013-7-15,97.3,75.1,54.8,61.4,52.1,45.9,85,50,20,29.87,29.60,18,3,18,0.00
2013-7-16,93.4,73.9,61.0,59.1,49.8,37.8,72,46,24,29.93,29.69,21,4,21,0.00
2013-7-17,93.6,72.1,48.6,57.1,47.3,39.7,78,46,19,30.05,29.92,18,4,18,0.00
2013-7-18,96.8,74.3,53.9,62.6,52.5,45.0,88,52,22,30.07,29.88,18,4,18,0.00
2013-7-19,96.6,74.3,53.8,60.6,52.1,45.0,83,50,23,30.01,29.84,16,3,16,0.00
2013-7-20,97.1,74.8,54.2,64.3,52.9,46.8,83,50,22,30.01,29.80,15,3,15,0.00
2013-7-21,99.7,75.3,53.3,62.8,51.8,39.2,83,49,20,29.92,29.76,14,3,14,0.00
2013-7-22,99.0,75.6,52.8,61.9,50.0,43.6,81,45,17,29.99,29.83,12,3,12,0.00
2013-7-23,91.4,73.0,53.5,60.6,51.9,45.3,81,51,25,30.03,29.93,12,2,12,0.00
2013-7-24,95.4,79.0,65.2,62.6,56.9,50.5,77,49,24,30.00,29.92,16,3,16,0.00
2013-7-25,102.3,80.9,60.5,64.3,56.5,50.7,80,48,19,30.04,29.86,17,3,17,0.00
2013-7-26,100.4,79.4,60.1,62.5,51.8,37.8,76,42,19,30.08,29.94,17,4,17,0.00
2013-7-27,94.7,73.8,55.4,58.1,47.4,37.5,76,43,18,30.11,29.89,17,4,17,0.00
2013-7-28,91.0,68.4,48.6,55.3,45.6,40.5,85,49,21,30.02,29.85,16,3,16,0.00
2013-7-29,89.0,68.1,51.7,57.2,47.5,42.1,82,52,24,30.03,29.88,15,3,15,0.00
2013-7-30,87.2,68.9,52.0,59.6,50.7,45.4,84,56,27,30.13,30.02,12,2,12,0.00
2013-7-31,84.0,71.1,61.5,60.1,54.8,49.7,81,59,32,30.08,29.95,15,4,15,0.00
2013-8-1,72.8,62.6,54.4,55.3,51.5,47.1,89,69,47,30.16,30.03,16,4,16,0.00
2013-8-2,84.3,63.4,45.2,54.8,47.8,42.0,93,62,26,30.18,29.99,14,3,14,0.00
2013-8-3,90.7,68.6,49.2,57.5,50.6,44.9,90,58,22,30.10,29.90,14,3,14,0.00
2013-8-4,94.5,71.7,51.1,61.3,51.5,46.8,87,54,20,30.04,29.86,14,3,14,0.00
2013-8-5,93.8,72.5,55.0,61.6,53.6,50.3,86,56,25,30.02,29.86,12,2,12,0.00
2013-8-6,96.3,77.0,56.3,63.3,55.0,49.0,87,51,22,30.01,29.84,15,4,15,0.00
2013-8-7,86.7,71.6,60.1,62.9,57.9,53.8,87,64,35,30.03,29.91,24,4,24,0.01
2013-8-8,83.6,66.5,52.3,62.5,55.2,50.0,94,70,39,30.06,29.89,15,2,15,0.00
2013-8-9,82.6,67.2,53.5,65.8,55.4,49.5,91,67,45,29.97,29.87,15,3,15,0.02
2013-8-10,82.0,66.7,55.9,61.3,54.4,45.5,90,68,30,30.09,29.95,24,4,24,0.00
2013-8-11,84.9,66.5,51.4,60.0,54.1,48.9,94,69,30,30.13,29.94,15,3,15,0.00
2013-8-12,89.0,69.5,52.8,62.8,54.4,50.7,93,63,30,30.05,29.94,20,4,20,0.00
2013-8-13,92.5,70.9,53.6,63.7,54.4,48.0,91,61,30,30.10,29.92,15,3,15,0.00
2013-8-14,90.1,70.6,53.5,59.0,50.5,45.8,83,53,24,30.03,29.89,14,3,14,0.00
2013-8-15,91.6,70.7,51.6,60.5,53.5,47.5,88,58,30,30.01,29.89,16,3,16,0.00
2013-8-16,93.6,74.5,58.3,67.1,57.5,50.9,88,59,32,30.02,29.93,18,4,18,0.00
2013-8-17,90.1,72.8,57.3,63.1,56.4,51.7,89,60,30,30.08,29.94,17,4,17,0.00
2013-8-18,94.7,72.9,56.2,65.4,55.9,50.1,91,60,24,30.11,29.93,15,3,15,0.00
2013-8-19,95.9,73.5,55.4,63.2,54.9,50.6,88,57,24,30.10,29.93,14,3,14,0.00
2013-8-20,91.8,72.7,54.8,64.4,55.2,50.3,90,58,25,30.05,29.85,12,2,12,0.00
2013-8-21,92.9,76.5,59.2,59.4,53.5,47.7,76,48,25,29.96,29.80,14,2,14,0.00
2013-8-22,82.4,66.9,55.7,65.1,55.8,49.3,90,69,45,30.00,29.85,26,3,26,0.12
2013-8-23,86.7,66.8,50.7,61.3,54.3,49.0,96,69,33,30.00,29.82,16,4,16,0.00
2013-8-24,85.5,66.9,50.7,57.4,53.0,48.0,92,64,32,29.93,29.80,16,3,16,0.00
2013-8-25,74.6,65.1,60.2,63.4,58.4,53.2,95,80,59,29.98,29.87,10,2,10,0.32
2013-8-26,82.6,67.6,57.0,62.3,55.5,49.3,93,68,37,30.00,29.93,15,4,15,0.00
2013-8-27,87.2,67.1,49.8,60.8,52.7,47.9,93,64,33,29.99,29.79,14,3,14,0.00
2013-8-28,89.3,69.0,51.9,61.5,54.1,48.9,90,63,31,29.92,29.83,12,3,12,0.00
2013-8-29,86.1,70.9,57.5,63.1,57.1,51.6,90,65,34,30.11,29.89,23,5,23,0.00
2013-8-30,87.6,70.8,57.3,63.7,57.6,54.6,92,66,36,30.17,29.97,12,3,12,0.00
2013-8-31,93.4,71.9,54.4,66.7,57.3,52.2,94,65,31,30.03,29.80,15,3,15,0.00
2013-9-1,87.8,69.9,53.5,60.1,53.7,49.6,89,60,32,29.94,29.80,20,4,20,0.00
2013-9-2,83.0,67.9,53.3,60.5,54.7,50.7,92,65,39,29.96,29.87,17,4,17,0.00
2013-9-3,82.8,66.7,52.9,58.8,52.8,49.1,89,64,36,30.02,29.94,16,3,16,0.00
2013-9-4,79.9,64.5,50.2,60.4,53.5,47.4,92,69,43,30.10,29.99,16,3,16,0.00
2013-9-5,72.3,63.1,57.0,59.4,55.4,53.1,90,77,58,30.18,29.99,17,2,17,0.18
2013-9-6,80.3,62.5,51.4,58.8,51.8,43.1,96,72,29,30.27,30.02,12,2,12,0.00
2013-9-7,89.3,66.4,49.9,61.1,51.6,46.5,93,64,24,30.09,29.83,12,2,12,0.00
2013-9-8,91.4,68.5,50.5,58.8,52.4,46.8,88,61,26,30.07,29.84,12,2,12,0.00
2013-9-9,92.5,70.6,52.8,61.6,53.4,45.8,93,61,21,30.05,29.76,7,2,7,0.00
2013-9-10,96.8,72.0,54.4,61.3,52.9,45.0,90,57,22,29.93,29.68,10,2,10,0.00
2013-9-11,99.0,74.3,53.3,59.3,51.4,47.0,79,50,19,29.95,29.77,12,2,12,0.00
2013-9-12,95.6,74.0,56.6,63.2,55.4,50.4,86,56,25,30.01,29.80,13,2,13,0.00
2013-9-13,94.5,72.2,56.3,62.2,53.8,48.9,84,56,25,29.97,29.70,12,2,12,0.00
2013-9-14,95.6,71.7,54.1,62.5,53.5,48.0,89,57,25,29.85,29.64,12,2,12,0.00
2013-9-15,84.9,67.4,52.5,59.6,51.7,47.3,88,60,31,29.93,29.70,17,4,17,0.00
2013-9-16,80.1,63.0,48.5,58.3,50.6,45.1,93,67,33,30.01,29.87,14,3,14,0.00
2013-9-17,65.3,58.8,52.0,56.6,52.4,49.2,91,80,62,30.11,29.84,21,2,21,0.30
2013-9-18,74.2,56.8,44.8,56.2,48.6,42.9,96,77,38,30.18,30.00,9,2,9,0.00
2013-9-19,83.0,56.9,41.5,53.6,43.9,39.3,95,68,25,30.04,29.82,10,1,10,0.00
2013-9-20,74.9,56.2,43.6,55.8,47.7,40.9,96,76,34,29.84,29.69,26,3,26,0.14
2013-9-21,65.3,55.6,49.5,56.3,51.4,47.8,97,87,61,29.93,29.75,14,2,14,0.09
2013-9-22,65.8,55.2,46.7,53.6,48.9,44.0,94,81,55,30.01,29.92,20,3,20,0.05
2013-9-23,67.3,59.1,54.1,58.1,53.1,49.8,95,81,63,30.07,30.00,15,3,15,0.07
2013-9-24,62.4,55.4,49.1,53.1,49.5,43.4,90,81,63,30.07,29.96,13,3,13,0.10
2013-9-25,58.0,49.0,42.2,46.8,43.7,39.8,93,82,57,30.10,29.97,17,3,17,0.02
2013-9-26,64.2,51.4,41.8,46.5,43.1,38.9,93,76,43,30.25,30.10,15,3,15,0.00
2013-9-27,66.1,50.3,35.6,49.6,41.8,33.8,95,75,43,30.32,30.14,7,2,7,0.00
2013-9-28,72.0,60.1,49.2,52.7,47.9,44.5,89,67,40,30.14,29.75,34,9,34,0.00
2013-9-29,63.5,56.1,53.5,55.2,52.6,50.5,95,88,67,29.90,29.74,26,4,26,0.64
2013-9-30,65.3,56.3,50.8,54.7,46.6,36.8,95,73,39,30.12,29.76,18,5,18,0.23
2013-10-1,63.9,50.7,40.9,49.2,43.0,38.0,93,76,50,30.26,30.10,23,3,23,0.00
2013-10-2,61.8,46.1,34.4,44.5,38.6,32.3,96,78,37,30.26,30.16,18,3,18,0.00
2013-10-3,61.0,47.9,38.0,43.9,39.2,35.4,93,74,41,30.44,30.25,10,2,10,0.01
2013-10-4,70.4,47.4,32.1,46.0,37.7,30.7,97,74,31,30.52,30.34,12,2,12,0.00
2013-10-5,77.7,51.3,34.0,46.1,38.0,31.5,92,67,23,30.39,30.20,6,2,6,0.00
2013-10-6,76.0,51.7,35.3,48.1,39.8,33.5,94,69,29,30.23,30.08,9,2,9,0.00
2013-10-7,64.5,49.5,40.9,49.0,41.3,36.2,88,74,48,30.22,30.07,12,2,12,0.00
2013-10-8,58.9,46.8,35.5,46.6,39.7,33.1,95,78,50,30.25,30.01,9,2,9,0.02
2013-10-9,61.2,47.2,34.7,42.4,38.6,32.3,96,75,41,30.05,29.96,12,2,12,0.00
2013-10-10,64.7,47.6,34.6,47.7,39.8,33.1,95,77,36,30.13,29.99,7,2,7,0.00
2013-10-11,62.9,45.6,31.8,47.0,39.0,30.3,96,80,50,30.22,30.11,10,2,10,0.00
2013-10-12,55.3,45.1,34.9,48.3,41.7,33.3,96,88,71,30.19,30.10,12,2,12,0.10
2013-10-13,61.5,46.9,38.0,46.3,41.5,36.1,97,84,47,30.32,30.18,7,2,7,0.01
2013-10-14,66.8,45.7,31.5,44.8,38.0,30.2,97,78,42,30.40,30.24,9,2,9,0.00
2013-10-15,73.2,47.6,31.2,42.1,34.4,29.5,96,68,21,30.35,30.15,20,3,20,0.00
2013-10-16,69.8,46.6,31.5,42.4,35.6,29.0,92,70,30,30.25,30.14,6,1,6,0.00
2013-10-17,70.6,48.0,32.9,45.5,38.4,31.1,95,74,33,30.30,30.13,6,1,6,0.00
2013-10-18,73.3,49.2,33.7,48.7,39.7,32.0,97,74,32,30.26,30.10,5,1,5,0.00
2013-10-19,74.2,49.4,34.6,48.7,39.9,33.1,97,75,30,30.26,30.06,5,1,5,0.00
2013-10-20,73.2,49.0,34.4,48.6,39.8,32.6,96,75,32,30.16,30.00,6,1,6,0.00
2013-10-21,77.0,50.3,34.4,49.4,40.5,32.6,96,74,30,30.11,29.93,5,1,5,0.00
2013-10-22,76.8,51.4,35.6,49.4,40.8,33.5,96,72,30,30.09,29.92,5,1,5,0.00
2013-10-23,74.6,50.3,35.8,47.9,39.9,33.5,96,72,29,30.05,29.91,6,1,6,0.00
2013-10-24,73.0,48.8,34.1,48.9,39.0,31.7,95,73,32,30.08,29.96,5,1,5,0.00
2013-10-25,72.0,48.3,34.3,48.2,38.4,31.9,95,73,31,30.23,30.07,5,1,5,0.00
2013-10-26,70.3,47.5,32.9,45.7,38.5,30.6,95,75,35,30.29,30.08,6,1,6,0.00
2013-10-27,60.1,45.8,33.1,47.3,38.9,30.8,95,78,52,30.08,29.73,23,4,23,0.00
2013-10-28,55.6,48.3,36.6,44.1,40.2,33.1,88,74,59,29.85,29.67,10,2,10,0.00
2013-10-29,59.5,41.9,29.3,40.7,34.2,27.0,94,77,44,30.06,29.85,6,1,6,0.00
2013-10-30,62.0,44.4,32.8,45.0,37.1,29.9,94,78,49,30.21,30.04,7,1,7,0.00
2013-10-31,65.3,48.4,36.0,44.8,39.7,33.5,93,75,42,30.31,30.17,7,2,7,0.00
2013-11-1,67.3,45.8,32.7,47.9,39.2,30.9,96,80,46,30.25,30.01,5,1,5,0.00
2013-11-2,57.5,45.8,37.5,50.4,40.6,32.6,94,83,57,30.19,29.90,16,3,16,0.13
2013-11-3,52.9,42.0,34.6,39.8,36.1,31.8,93,81,54,30.24,30.16,17,2,17,0.00
2013-11-4,51.4,42.4,36.6,40.6,37.4,34.2,94,83,62,30.25,30.16,6,1,6,0.00
2013-11-5,50.8,45.2,39.3,45.4,42.3,36.6,94,89,81,30.30,30.21,4,1,4,0.12
2013-11-6,55.0,49.5,45.7,49.6,46.5,43.6,95,89,79,30.31,30.14,5,1,5,0.00
2013-11-7,56.9,50.7,46.0,52.1,48.1,43.2,96,91,83,30.16,30.03,14,2,14,0.02
2013-11-8,52.9,42.3,32.2,43.5,37.9,30.1,92,85,66,30.23,30.10,7,1,7,0.00
2013-11-9,54.1,42.1,32.5,42.2,38.1,30.3,94,86,60,30.14,30.02,5,1,5,0.00
2013-11-10,56.0,40.9,32.1,46.4,37.6,30.3,97,88,67,30.13,30.02,5,1,5,0.00
2013-11-11,55.6,43.2,35.5,45.1,39.5,33.4,97,87,61,30.15,30.00,5,1,5,0.00
2013-11-12,56.2,50.4,43.8,51.5,47.5,41.6,95,90,81,30.36,30.08,6,1,6,0.06
2013-11-13,60.5,50.8,38.9,52.4,47.2,36.5,97,88,68,30.41,30.22,7,1,7,0.01
2013-11-14,51.4,45.1,36.2,45.8,41.5,33.2,96,87,72,30.22,30.06,10,2,10,0.00
2013-11-15,52.9,41.6,32.9,39.4,35.4,30.3,94,80,49,30.08,29.80,6,2,6,0.00
2013-11-16,54.7,44.8,39.2,44.4,38.8,35.4,91,80,56,29.96,29.74,17,3,17,0.00
2013-11-17,55.4,42.0,34.1,41.3,35.6,31.1,93,79,52,30.10,29.95,7,1,7,0.00
2013-11-18,45.5,39.9,34.1,40.1,36.3,31.5,94,87,76,30.06,29.90,5,1,5,0.00
2013-11-19,52.8,47.2,42.3,49.3,45.4,40.1,97,93,87,29.91,29.81,6,2,6,0.42
2013-11-20,49.6,45.8,32.5,47.8,43.3,29.9,96,91,79,30.17,29.83,6,2,6,0.27
2013-11-21,44.2,33.0,23.9,35.2,28.9,21.0,95,85,61,30.49,30.17,6,1,6,0.00
2013-11-22,50.4,29.8,18.8,30.0,22.8,16.4,93,78,35,30.53,30.32,5,1,5,0.00
2013-11-23,56.7,33.7,21.3,32.5,24.8,18.6,93,74,31,30.34,30.12,6,1,6,0.00
2013-11-24,55.3,33.5,22.4,32.3,25.2,19.9,93,75,28,30.31,30.14,5,1,5,0.00
2013-11-25,52.5,32.7,21.4,35.5,26.6,18.9,94,80,45,30.41,30.29,5,1,5,0.00
2013-11-26,48.8,33.9,25.3,35.1,28.6,23.0,94,82,54,30.33,30.08,5,1,5,0.00
2013-11-27,48.3,35.5,28.7,39.1,31.3,26.2,94,85,67,30.08,29.91,4,1,4,0.00
2013-11-28,55.3,36.6,26.4,40.0,31.7,24.3,96,83,52,30.21,29.98,5,1,5,0.00
2013-11-29,53.6,36.7,25.7,40.0,32.2,24.0,96,85,57,30.35,30.20,4,1,4,0.00
2013-11-30,56.0,40.3,30.1,42.9,35.4,28.0,95,84,57,30.44,30.31,5,1,5,0.00
2013-12-1,55.6,41.6,33.4,44.4,37.6,31.6,96,87,63,30.46,30.20,7,2,7,0.00
2013-12-2,53.3,44.1,32.8,49.3,40.3,28.2,100,86,76,30.19,29.91,20,5,20,0.08
2013-12-3,44.2,31.5,24.2,34.7,26.9,21.2,94,84,58,30.12,30.03,12,2,12,0.00
2013-12-4,37.5,24.3,15.9,23.8,16.2,11.7,90,73,41,30.26,30.11,6,1,6,0.00
2013-12-5,35.2,21.8,11.2,20.3,14.7,7.6,90,75,47,30.31,30.15,5,1,5,0.00
2013-12-6,30.0,27.2,25.0,26.3,23.2,19.4,93,85,77,30.15,29.86,6,1,6,0.00
2013-12-7,30.9,25.1,8.1,27.2,19.3,3.7,93,79,64,30.38,29.89,12,2,12,0.00
2013-12-8,25.3,10.6,0.9,14.6,5.4,-3.8,88,79,62,30.63,30.37,4,1,4,0.04
2013-12-9,27.0,13.1,3.4,18.6,8.3,-0.6,88,81,66,30.69,30.58,5,1,5,0.04
2013-12-10,30.3,16.8,8.1,22.7,12.5,4.5,89,83,70,30.61,30.47,5,1,5,0.01
2013-12-11,35.2,19.9,10.9,26.1,16.0,7.5,91,85,67,30.47,30.31,4,1,4,0.04
2013-12-12,32.2,24.6,15.9,29.2,21.7,13.5,93,89,82,30.37,30.23,14,1,14,0.00
2013-12-13,47.6,34.6,26.3,37.3,30.5,24.6,94,86,66,30.47,30.31,5,1,5,0.01
2013-12-14,34.4,30.4,25.4,33.4,29.1,23.7,97,95,93,30.55,30.46,5,1,5,0.00
2013-12-15,32.2,29.3,27.0,31.3,28.3,26.0,97,96,95,30.57,30.48,5,1,5,0.01
2013-12-16,34.0,28.3,24.7,32.7,27.1,23.5,97,95,93,30.51,30.33,4,1,4,0.00
2013-12-17,36.9,28.4,24.5,36.0,27.0,23.3,97,95,93,30.33,30.19,4,1,4,0.01
2013-12-18,36.0,29.4,24.5,33.6,27.8,23.0,96,94,90,30.22,30.01,6,1,6,0.00
2013-12-19,42.9,30.7,22.7,31.1,25.2,19.9,95,81,54,30.24,30.03,7,2,7,0.00
2013-12-20,38.3,32.1,23.8,32.3,27.5,21.0,91,83,67,30.25,30.09,10,1,10,0.00
2013-12-21,46.8,36.9,30.3,40.0,33.7,28.3,95,88,73,30.34,30.09,6,1,6,0.00
2013-12-22,52.6,39.8,30.7,43.5,36.7,28.9,96,89,68,30.44,30.30,6,1,6,0.00
2013-12-23,46.2,40.2,31.0,41.3,37.5,29.5,96,90,81,30.52,30.41,4,1,4,0.00
2013-12-24,47.3,38.4,29.3,43.0,35.8,27.3,96,90,79,30.52,30.42,5,1,5,0.00
2013-12-25,38.3,34.1,30.1,35.7,32.4,28.3,96,93,87,30.50,30.38,7,1,7,0.00
2013-12-26,35.0,31.2,27.8,34.0,29.9,26.8,97,95,93,30.45,30.30,4,1,4,0.00
2013-12-27,33.5,29.6,26.6,32.4,28.4,25.4,97,95,94,30.36,30.24,10,2,10,0.01
2013-12-28,31.6,28.5,26.0,30.8,27.6,24.8,97,96,95,30.50,30.36,4,1,4,0.00
2013-12-29,36.3,28.5,24.4,32.7,26.8,23.4,97,93,84,30.46,30.30,4,0,4,0.00
2013-12-30,41.5,30.6,25.4,35.7,27.9,23.9,96,90,75,30.33,30.25,5,1,5,0.00
2013-12-31,48.5,33.3,26.7,37.9,29.7,24.7,96,87,64,30.39,30.28,5,1,5,0.00
2014-1-1,46.2,31.3,21.9,35.8,27.3,19.9,96,86,64,30.42,30.27,5,1,5,0.00
2014-1-2,48.9,33.7,23.2,38.3,29.6,21.2,96,86,64,30.35,30.16,5,1,5,0.00